Weather History for KLSF - October, 2012

Change the Weather History Date:

Saturday, October 13, 2012

  Actual Average Record
Temperature  
Mean Temperature 69 °F -  
Max Temperature 82 °F 76 °F 87 °F (2014)
Min Temperature 57 °F 51 °F 39 °F (2000)
Cooling Degree Days 4    
Growing Degree Days 19 (Base 50)    
Moisture  
Dew Point 59 °F    
Average Humidity 94    
Maximum Humidity 100    
Minimum Humidity 50    
Precipitation  
Precipitation 0.00 in - - ()
Sea Level Pressure  
Sea Level Pressure 30.23 in    
Wind  
Wind Speed 1 mph (SSW)    
Max Wind Speed 13 mph    
Max Gust Speed -    
Visibility 3 miles    
Events Fog    
Averages and records for this station are not official NWS values.
T = Trace of Precipitation, MM = Missing Value Source: NWS Daily Summary

Daily Weather History Graph

Daily Weather History Graph

Search for Another Location

Airport or City:

Trip Planner

Search our weather history database for the weather conditions in past years. The results will help you decide how hot, cold, wet, or windy it might be!

Date:

Astronomy

Oct. 13, 2012 Rise Set
Actual Time 7:42 AM EDT 7:09 PM EDT
Civil Twilight 7:17 AM EDT 7:33 PM EDT
Nautical Twilight 6:49 AM EDT 8:02 PM EDT
Astronomical Twilight 6:20 AM EDT 8:30 PM EDT
Moon 5:36 AM EDT (10/13) 5:49 PM EDT (10/13)
Length of Visible Light 12h 15m
Length of Day
11h 26m
Waning Crescent, 5% of the Moon is Illuminated
Oct 13
Waning Crescent
Oct 15
New
Oct 21
First Quarter
Oct 29
Full
Nov 6
Last Quarter

Hourly Weather History & Observations

Time (EDT) Temp. Heat Index Dew Point Humidity Pressure Visibility Wind Dir Wind Speed Gust Speed Precip Events Conditions
12:55 AM 61.2 °F - 61.0 °F 99% 30.23 in 10.0 mi Calm Calm - N/A   Clear
1:23 AM 60.8 °F - 60.8 °F 100% 30.23 in 4.0 mi Calm Calm - N/A   Clear
1:28 AM 60.8 °F - 60.8 °F 100% 30.23 in 5.0 mi Calm Calm - N/A   Clear
1:36 AM 60.8 °F - 60.8 °F 100% 30.23 in 2.5 mi Calm Calm - N/A   Clear
1:37 AM 60.8 °F - 60.8 °F 100% 30.23 in 1.8 mi Calm Calm - N/A   Clear
1:39 AM 60.8 °F - 60.8 °F 100% 30.23 in 3.0 mi Calm Calm - N/A   Mist
1:55 AM 60.8 °F - 60.4 °F 99% 30.23 in 8.0 mi Calm Calm - N/A   Clear
2:15 AM 60.8 °F - 59.0 °F 94% 30.23 in 3.0 mi Calm Calm - N/A   Clear
2:35 AM 60.8 °F - 60.8 °F 100% 30.23 in 5.0 mi Calm Calm - N/A   Clear
2:47 AM 59.0 °F - 59.0 °F 100% 30.23 in 2.0 mi Calm Calm - N/A   Clear
2:48 AM 59.0 °F - 59.0 °F 100% 30.23 in 1.5 mi Calm Calm - N/A   Clear
2:49 AM 59.0 °F - 59.0 °F 100% 30.23 in 1.2 mi Calm Calm - N/A   Clear
2:52 AM 59.0 °F - 59.0 °F 100% 30.23 in 1.0 mi Calm Calm - N/A   Clear
2:53 AM 59.0 °F - 59.0 °F 100% 30.23 in 1.0 mi Calm Calm - N/A   Clear
2:55 AM 59.2 °F - 59.0 °F 99% 30.23 in 1.0 mi Calm Calm - N/A   Clear
2:56 AM 59.0 °F - 59.0 °F 100% 30.23 in 1.2 mi Calm Calm - N/A   Clear
2:57 AM 59.0 °F - 59.0 °F 100% 30.23 in 1.5 mi Calm Calm - N/A   Clear
2:58 AM 59.0 °F - 59.0 °F 100% 30.23 in 2.0 mi Calm Calm - N/A   Clear
3:00 AM 60.8 °F - 59.0 °F 94% 30.23 in 3.0 mi Calm Calm - N/A   Clear
3:55 AM 59.7 °F - 59.4 °F 99% 30.22 in 7.0 mi Calm Calm - N/A   Clear
4:05 AM 59.0 °F - 59.0 °F 100% 30.22 in 2.5 mi Calm Calm - N/A   Clear
4:07 AM 59.0 °F - 59.0 °F 100% 30.22 in 1.5 mi Calm Calm - N/A   Clear
4:09 AM 59.0 °F - 59.0 °F 100% 30.22 in 1.2 mi Calm Calm - N/A   Clear
4:10 AM 59.0 °F - 57.2 °F 94% 30.22 in 1.0 mi Calm Calm - N/A   Clear
4:11 AM 59.0 °F - 57.2 °F 94% 30.22 in 1.0 mi Calm Calm - N/A   Clear
4:12 AM 59.0 °F - 57.2 °F 94% 30.22 in 1.0 mi Calm Calm - N/A   Clear
4:13 AM 59.0 °F - 59.0 °F 100% 30.22 in 1.0 mi Calm Calm - N/A   Clear
4:14 AM 59.0 °F - 59.0 °F 100% 30.22 in 1.0 mi Calm Calm - N/A   Clear
4:15 AM 59.0 °F - 59.0 °F 100% 30.22 in 1.2 mi Calm Calm - N/A   Clear
4:16 AM 59.0 °F - 59.0 °F 100% 30.22 in 1.2 mi Calm Calm - N/A   Clear
4:17 AM 59.0 °F - 59.0 °F 100% 30.22 in 1.5 mi Calm Calm - N/A   Clear
4:18 AM 59.0 °F - 59.0 °F 100% 30.22 in 1.8 mi Calm Calm - N/A   Clear
4:19 AM 59.0 °F - 59.0 °F 100% 30.22 in 2.0 mi Calm Calm - N/A   Clear
4:24 AM 57.2 °F - 57.2 °F 100% 30.22 in 1.5 mi Calm Calm - N/A   Clear
4:25 AM 57.2 °F - 57.2 °F 100% 30.22 in 1.2 mi Calm Calm - N/A   Clear
4:26 AM 57.2 °F - 57.2 °F 100% 30.22 in 1.0 mi Calm Calm - N/A   Clear
4:27 AM 57.2 °F - 57.2 °F 100% 30.22 in 0.8 mi Calm Calm - N/A   Clear
4:29 AM 57.2 °F - 57.2 °F 100% 30.22 in 0.5 mi Calm Calm - N/A Fog Fog
4:31 AM 57.2 °F - 57.2 °F 100% 30.22 in 0.5 mi Calm Calm - N/A Fog Fog
4:32 AM 57.2 °F - 57.2 °F 100% 30.22 in 0.5 mi Calm Calm - N/A Fog Fog
4:45 AM 57.2 °F - 57.2 °F 100% 30.23 in 0.5 mi Calm Calm - N/A Fog Fog
4:46 AM 57.2 °F - 57.2 °F 100% 30.23 in 0.8 mi Calm Calm - N/A   Clear
4:47 AM 57.2 °F - 57.2 °F 100% 30.23 in 0.8 mi Calm Calm - N/A   Clear
4:48 AM 57.2 °F - 57.2 °F 100% 30.23 in 1.0 mi WNW 3.5 mph - N/A   Clear
4:49 AM 57.2 °F - 57.2 °F 100% 30.23 in 1.0 mi West 3.5 mph - N/A   Clear
4:50 AM 57.2 °F - 57.2 °F 100% 30.23 in 1.2 mi West 3.5 mph - N/A   Clear
4:51 AM 57.2 °F - 57.2 °F 100% 30.24 in 1.8 mi WNW 3.5 mph - N/A   Clear
4:52 AM 57.2 °F - 57.2 °F 100% 30.24 in 2.0 mi West 3.5 mph - N/A   Clear
4:53 AM 57.2 °F - 57.2 °F 100% 30.24 in 3.0 mi West 3.5 mph - N/A   Clear
4:55 AM 57.7 °F - 57.4 °F 99% 30.24 in 7.0 mi WNW 3.5 mph - N/A   Clear
5:10 AM 59.0 °F - 59.0 °F 100% 30.24 in 4.0 mi NW 3.5 mph - N/A   Clear
5:35 AM 59.0 °F - 59.0 °F 100% 30.24 in 2.5 mi Calm Calm - N/A   Clear
5:36 AM 59.0 °F - 59.0 °F 100% 30.24 in 2.5 mi Calm Calm - N/A   Clear
5:37 AM 59.0 °F - 59.0 °F 100% 30.24 in 2.0 mi Calm Calm - N/A   Clear
5:42 AM 59.0 °F - 59.0 °F 100% 30.24 in 1.8 mi Calm Calm - N/A   Clear
5:43 AM 59.0 °F - 59.0 °F 100% 30.24 in 1.5 mi Calm Calm - N/A   Clear
5:45 AM 59.0 °F - 57.2 °F 94% 30.24 in 1.2 mi Calm Calm - N/A   Clear
5:48 AM 59.0 °F - 57.2 °F 94% 30.24 in 1.2 mi Calm Calm - N/A   Clear
5:50 AM 57.2 °F - 57.2 °F 100% 30.24 in 1.0 mi Calm Calm - N/A   Clear
5:52 AM 57.2 °F - 57.2 °F 100% 30.24 in 1.2 mi Calm Calm - N/A   Clear
5:55 AM 57.9 °F - 57.6 °F 99% 30.24 in 1.2 mi Calm Calm - N/A   Clear
5:58 AM 59.0 °F - 57.2 °F 94% 30.24 in 1.0 mi Calm Calm - N/A   Clear
6:01 AM 59.0 °F - 59.0 °F 100% 30.24 in 0.8 mi Calm Calm - N/A   Clear
6:03 AM 59.0 °F - 59.0 °F 100% 30.24 in 0.8 mi Calm Calm - N/A   Clear
6:04 AM 59.0 °F - 59.0 °F 100% 30.24 in 0.8 mi Calm Calm - N/A   Clear
6:05 AM 59.0 °F - 59.0 °F 100% 30.24 in 0.8 mi Calm Calm - N/A   Clear
6:06 AM 59.0 °F - 59.0 °F 100% 30.24 in 1.0 mi Calm Calm - N/A   Clear
6:07 AM 59.0 °F - 59.0 °F 100% 30.24 in 0.8 mi Calm Calm - N/A   Clear
6:11 AM 59.0 °F - 57.2 °F 94% 30.24 in 1.0 mi Calm Calm - N/A   Clear
6:16 AM 59.0 °F - 57.2 °F 94% 30.24 in 0.8 mi Calm Calm - N/A   Clear
6:20 AM 59.0 °F - 57.2 °F 94% 30.24 in 1.0 mi Calm Calm - N/A   Clear
6:23 AM 59.0 °F - 57.2 °F 94% 30.24 in 1.0 mi Calm Calm - N/A   Clear
6:26 AM 59.0 °F - 59.0 °F 100% 30.24 in 1.2 mi Calm Calm - N/A   Clear
6:28 AM 59.0 °F - 59.0 °F 100% 30.24 in 1.5 mi Calm Calm - N/A   Clear
6:29 AM 59.0 °F - 59.0 °F 100% 30.24 in 2.0 mi Calm Calm - N/A   Clear
6:30 AM 59.0 °F - 59.0 °F 100% 30.24 in 3.0 mi Calm Calm - N/A   Clear
6:40 AM 59.0 °F - 59.0 °F 100% 30.24 in 3.0 mi Calm Calm - N/A   Clear
6:41 AM 59.0 °F - 57.2 °F 94% 30.24 in 3.0 mi Calm Calm - N/A   Clear
6:42 AM 59.0 °F - 57.2 °F 94% 30.24 in 3.0 mi Calm Calm - N/A   Clear
6:55 AM 58.6 °F - 58.3 °F 99% 30.25 in 10.0 mi Calm Calm - N/A   Clear
7:55 AM 58.8 °F - 58.6 °F 99% 30.26 in 10.0 mi Calm Calm - N/A   Clear
8:55 AM 63.9 °F - 61.0 °F 90% 30.29 in 10.0 mi Calm Calm - N/A   Clear
9:55 AM 69.4 °F - 62.6 °F 79% 30.30 in 10.0 mi ESE 8.1 mph - N/A   Clear
10:55 AM 74.3 °F - 63.1 °F 68% 30.31 in 10.0 mi ESE 11.5 mph - N/A   Clear
11:55 AM 77.4 °F - 63.1 °F 61% 30.30 in 10.0 mi SE 12.7 mph - N/A   Partly Cloudy
12:55 PM 79.0 °F - 62.8 °F 57% 30.28 in 10.0 mi SE 11.5 mph - N/A   Scattered Clouds
1:55 PM 78.8 °F - 62.1 °F 56% 30.25 in 10.0 mi Variable 6.9 mph - N/A   Overcast
2:55 PM 81.3 °F 82.3 °F 62.1 °F 52% 30.22 in 10.0 mi East 10.4 mph - N/A   Overcast
3:55 PM 79.7 °F - 61.2 °F 53% 30.21 in 10.0 mi East 9.2 mph - N/A   Mostly Cloudy
4:55 PM 80.4 °F 81.3 °F 60.8 °F 51% 30.21 in 10.0 mi SSE 6.9 mph - N/A   Scattered Clouds
5:55 PM 80.2 °F 81.0 °F 60.3 °F 50% 30.20 in 10.0 mi SSE 6.9 mph - N/A   Mostly Cloudy
6:55 PM 73.8 °F - 62.4 °F 68% 30.20 in 10.0 mi ESE 5.8 mph - N/A   Clear
7:55 PM 66.7 °F - 61.2 °F 82% 30.21 in 10.0 mi Calm Calm - N/A   Clear
8:55 PM 62.8 °F - 61.0 °F 94% 30.22 in 10.0 mi Calm Calm - N/A   Clear
9:55 PM 61.7 °F - 61.2 °F 98% 30.23 in 10.0 mi Calm Calm - N/A   Clear
10:55 PM 59.7 °F - 59.4 °F 99% 30.22 in 10.0 mi Calm Calm - N/A   Clear
11:55 PM 59.7 °F - 59.4 °F 99% 30.23 in 10.0 mi Calm Calm - N/A   Clear